Regional Weather Roundup
Issued by NWS San Diego, CA

Home | Current Version | Previous Version | Text Only | Print | Product List | Glossary On
Versions: 1 2 3 4 5 6 7 8 9 10 11 12 13 14 15 16 17 18 19 20 21 22 23 24 25 26 27 28 29 30 31 32 33 34 35 36 37 38 39 40 41 42 43 44 45 46 47 48 49 50
000
ASUS46 KSGX 232111
RWRSGX

SAN DIEGO HOURLY WEATHER ROUNDUP
NATIONAL WEATHER SERVICE SAN DIEGO CA
200 PM PDT TUE MAY 23 2017

NOTE: "FAIR" INDICATES FEW OR NO CLOUDS BELOW 12,000 FEET WITH NO
SIGNIFICANT WEATHER AND/OR OBSTRUCTIONS TO VISIBILITY.

CAZ042-043-060-061-PZZ750-775-232200-

GREATER SAN DIEGO AREA

CITY           SKY/WX    TMP DP  RH WIND       PRES   REMARKS
SAN DIEGO AP   PTSUNNY   69  58  67 W13       29.97F
NATIONAL CITY    N/A     69  61  76 NW7       29.95F
CHULA VISTA      N/A     70  62  76 W8        29.88S
IMPERIAL BEACH PTSUNNY   65  56  72 NW12      29.97F
BROWN FIELD    SUNNY     69  59  70 NW8       29.96S
MIRAMAR MCAS   PTSUNNY   72  57  59 NW12      29.96S
MONTGOMERY FLD MOSUNNY   69  57  65 W9        29.96S

$$

NORTH SAN DIEGO COUNTY

CITY           SKY/WX    TMP DP  RH WIND       PRES   REMARKS
CAMP PENDLETON MOSUNNY   70  60  70 SW8       29.94F
OCEANSIDE AP   CLOUDY    69  59  70 SW9       29.95S
OCEANSIDE HBR    N/A     62  59  88 W3        29.98F
VISTA            N/A     69  60  75 W3        29.92F
CARLSBAD       CLOUDY    64  58  80 VRB5      29.95F
DEL MAR          N/A     65  59  82 CALM      29.98S
LA JOLLA SCRIP   N/A     61  59  92 SW3       29.96F
FALLBROOK        N/A     72  63  73 S5          N/A
ESCONDIDO        N/A     78  62  57 W6        29.94F
SAN MARCOS       N/A     69  60  72 NW9       29.96S
POWAY            N/A     77  61  56 W1        29.95S

$$

EAST SAN DIEGO COUNTY

CITY           SKY/WX    TMP DP  RH WIND       PRES   REMARKS
RAMONA         SUNNY     80  61  52 W13       29.95S
SANTEE LAKES     N/A     76  62  60 W8        29.92S
LA MESA          N/A     74  60  63 W3        29.88S
JAMUL            N/A     79  63  57 CALM      29.93R
DESCANSO N       N/A     85  57  37 W7        29.84S
MT. LAGUNA OBS   N/A     78  40  26 SE3       29.76F
CAMPO            N/A     94  32  11 W12G22    29.94S

$$

ORANGE COUNTY AND THE LOS ANGELES BASIN

CITY           SKY/WX    TMP DP  RH WIND       PRES   REMARKS
JOHN WAYNE AP  MOSUNNY   72  58  61 SW9       29.94F
LAKE FOREST FR   N/A     80  58  46 W5        29.82F
HUNTINGTON BCH   N/A     69  62  77 W10       29.96F
LOS ALAMITOS   SUNNY     77  59  53 W7        29.94F
FULLERTON      SUNNY     78  59  51 VRB6      29.93F
LONG BEACH     SUNNY     74  56  53 NW12      29.94F
L.A. AP        PTSUNNY   65  57  75 W14       29.96F
L.A. DOWNTOWN  SUNNY     70  58  65 MISG      29.94F

$$

THE INLAND EMPIRE

CITY           SKY/WX    TMP DP  RH WIND       PRES   REMARKS
CORONA         SUNNY     83  61  47 W18G30    29.89F
CHINO          MOSUNNY   89  58  34 W20       29.91F
ONTARIO        MOSUNNY   88  57  34 SW15G24   29.91S
SAN BERNARDINO SUNNY     99  41  13 W12       29.90F HAZE
RIVERSIDE AP   SUNNY     90  58  33 W13G22    29.90S
MORENO VALLEY    N/A     97  55  24 W5        28.04S HX  95
MARCH ARB      SUNNY     94  54  25 W15       29.92S
HORSETHIEF CYN   N/A     90  48  23 NE15      29.88S
PERRIS           N/A     94  47  19 NW8       29.90S
HEMET EAST       N/A     96  34  11 W8        29.90F
FRENCH VALLEY    N/A    N/A N/A N/A MISG        N/A
TEMECULA         N/A     86  60  41 S12       29.95F

$$

SAN BERNARDINO AND RIVERSIDE COUNTY MOUNTAINS

CITY           SKY/WX    TMP DP  RH WIND       PRES   REMARKS
BIG BEAR AP    SUNNY     75  23  14 N8        30.27S
ANGELUS OAKS     N/A     81  41  24 CALM      29.82F
PINE COVE        N/A     77  40  26 N3        29.88F

$$

SOUTHERN DESERT INCLUDING THE COACHELLA VALLEY

CITY           SKY/WX    TMP DP  RH WIND       PRES   REMARKS
PALM SPRINGS   SUNNY    111  26   5 E8        29.81F HX 102
PALM DESERT      N/A    111  37   8 CALM      28.97F HX 104
THERMAL        SUNNY    110  27   5 SE10G20   29.74F HX 102
BLYTHE         SUNNY    107  25   5 VRB6      29.79F HX  99
IMPERIAL AP    SUNNY    108  36   8 VRB3      29.76F HX 101
EL CENTRO NAS  MOSUNNY  107  29   6 E5        29.78F HX  99
YUMA AZ        SUNNY    108  24   5 SW8       29.77  HX 100
MEXICALI       SUNNY    106  23   5 SW6       29.79F HX  98

$$

UPPER DESERT

CITY           SKY/WX    TMP DP  RH WIND       PRES   REMARKS
VICTORVILLE AP MOSUNNY   97  28   9 S15       29.98F
HESPERIA         N/A     96  35  12 W16       29.95F
PALMDALE       SUNNY     96  30   9 CALM      29.96F
LANCASTER      SUNNY     97  32  10 CALM      29.95F
EDWARDS AFB    MOSUNNY   97  24   7 N3        29.93F
DAGGETT        SUNNY    100  24   6 E9        29.91F
29 PALMS N     MOSUNNY   98  20   6 CALM      29.98F
NEEDLES        SUNNY    108  20   4 N9        29.84F HX  99

$$

REGIONAL REPORTS

CITY           SKY/WX    TMP DP  RH WIND       PRES   REMARKS
SANTA BARBARA  MOSUNNY   64  55  72 W9        29.97F
SANDBERG       SUNNY     90  24   9 SW14G26   30.14F
LAS VEGAS NV   MOSUNNY   97  23   7 N6        29.94F
PHOENIX AZ     SUNNY    101  25   7 NW9G18    29.81F
TIJUANA        MOSUNNY   70  55  60 W9        29.98S
ENSENADA NW      N/A     66  32  27 W12       29.93S

$$

OFFSHORE ISLANDS

CITY           SKY/WX    TMP DP  RH WIND       PRES   REMARKS
CATALINA ARPT  SUNNY     75  44  33 W12       29.99F
SAN CLEMENTE I PTSUNNY   63  53  70 NW15      29.99F
SAN NICOLAS IS MOSUNNY   64  54  69 NW14G21   29.97S

$$

MARINE AND OFFSHORE BUOY REPORTS

STATION/POSITION SKY/WX   TEMP    WIND        PRES    VSBY  SWELL
                          AIR SEA DIR/SP/G                  HT/PER/DIR
                          (F)     (DEG/KT/KT) (MB)    (MI)  (FT/S/D)
TANNER BANKS               57 60  310/ 12/ 14 1015.6          3/210/15
S CLEMENTE BASIN           57 62  300/ 16/ 17 1014.4          3/190/15
SAN NICOLAS IS.               58                N/A           3/190/14
SO. S. ROSA ISLA           54 55  320/ 16/ 17 1015.4          3/200/15
M. S. BARBARA CH                  270/ 10/ 12 1015.9F
S. MONICA BASIN            59 63  330/ 12/ 16 1014.5F         2/200/15
S PEDRO CHANNEL               63                N/A           2/190/17
CMP PENDLETON NS              64                N/A           2/210/14
OCEANSIDE OFFSHR              63                N/A           3/190/15
TORREY PINES OTR              64                N/A           2/200/14
SAN DIEGO BAY                 69              1014.7F
POINT LOMA SOUTH              65                N/A           3/200/15

$$





USA.gov is the U.S. government's official web portal to all federal, state and local government web resources and services.